Time,TemperatureF,DewpointF,PressureIn,WindDirection,WindDirectionDegrees,WindSpeedMPH,WindSpeedGustMPH,Humidity,HourlyPrecipIn,Conditions,Clouds,dailyrainin,SoftwareType,DateUTC
2013-02-14 00:01:00,44.0,29.0,-100.00,WNW,286,10.0,13.0,55,-99.99,,,-99.99,,2013-02-14 08:01:00,
2013-02-14 00:11:00,44.0,29.0,-100.00,WNW,286,10.0,13.0,55,-99.99,,,-99.99,,2013-02-14 08:11:00,
2013-02-14 01:01:00,42.0,29.0,-100.00,WNW,286,12.0,17.0,59,-99.99,,,-99.99,,2013-02-14 09:01:00,
2013-02-14 01:11:00,42.0,29.0,-100.00,WNW,286,12.0,17.0,59,-99.99,,,-99.99,,2013-02-14 09:11:00,
2013-02-14 02:02:00,42.0,30.0,-100.00,WNW,290,12.0,15.0,62,-99.99,,,-99.99,,2013-02-14 10:02:00,
2013-02-14 02:11:00,42.0,30.0,-100.00,WNW,290,12.0,15.0,62,-99.99,,,-99.99,,2013-02-14 10:11:00,
2013-02-14 03:01:00,40.0,31.0,-100.00,WNW,291,9.0,12.0,69,-99.99,,,-99.99,,2013-02-14 11:01:00,
2013-02-14 03:11:00,40.0,31.0,-100.00,WNW,291,9.0,12.0,69,-99.99,,,-99.99,,2013-02-14 11:11:00,
2013-02-14 04:01:00,39.0,31.0,-100.00,West,280,8.0,10.0,72,-99.99,,,-99.99,,2013-02-14 12:01:00,
2013-02-14 04:11:00,39.0,31.0,-100.00,West,280,8.0,10.0,72,-99.99,,,-99.99,,2013-02-14 12:11:00,
2013-02-14 05:01:00,39.0,30.0,-100.00,West,268,5.0,6.0,69,-99.99,,,-99.99,,2013-02-14 13:01:00,
2013-02-14 05:11:00,39.0,30.0,-100.00,West,268,5.0,6.0,69,-99.99,,,-99.99,,2013-02-14 13:11:00,
2013-02-14 06:01:00,35.0,30.0,-100.00,NW,316,3.0,7.0,81,-99.99,,,-99.99,,2013-02-14 14:01:00,
2013-02-14 06:11:00,35.0,30.0,-100.00,NW,316,3.0,7.0,81,-99.99,,,-99.99,,2013-02-14 14:11:00,
2013-02-14 07:01:00,37.0,30.0,-100.00,WNW,285,5.0,7.0,75,-99.99,,,-99.99,,2013-02-14 15:01:00,
2013-02-14 07:11:00,37.0,30.0,-100.00,WNW,285,5.0,7.0,75,-99.99,,,-99.99,,2013-02-14 15:11:00,
2013-02-14 08:01:00,34.0,30.0,-100.00,SE,136,1.0,2.0,85,-99.99,,,-99.99,,2013-02-14 16:01:00,
2013-02-14 08:11:00,34.0,30.0,-100.00,SE,136,1.0,2.0,85,-99.99,,,-99.99,,2013-02-14 16:11:00,
2013-02-14 08:52:00,36.0,31.0,-100.00,WNW,292,2.0,3.0,81,-99.99,,,-99.99,,2013-02-14 16:52:00,
2013-02-14 09:01:00,36.0,31.0,-100.00,WNW,292,2.0,3.0,81,-99.99,,,-99.99,,2013-02-14 17:01:00,
2013-02-14 09:11:00,36.0,31.0,-100.00,WNW,292,2.0,3.0,81,-99.99,,,-99.99,,2013-02-14 17:11:00,
2013-02-14 10:01:00,40.0,31.0,-100.00,NE,47,3.0,6.0,69,-99.99,,,-99.99,,2013-02-14 18:01:00,
2013-02-14 10:11:00,40.0,31.0,-100.00,NE,47,3.0,6.0,69,-99.99,,,-99.99,,2013-02-14 18:11:00,
2013-02-14 11:02:00,42.0,32.0,-100.00,ENE,67,2.0,3.0,67,-99.99,,,-99.99,,2013-02-14 19:02:00,
2013-02-14 11:11:00,42.0,32.0,-100.00,ENE,67,2.0,3.0,67,-99.99,,,-99.99,,2013-02-14 19:11:00,
2013-02-14 12:01:00,47.0,33.0,-100.00,SE,141,3.0,7.0,58,-99.99,,,-99.99,,2013-02-14 20:01:00,
2013-02-14 12:11:00,47.0,33.0,-100.00,SE,141,3.0,7.0,58,-99.99,,,-99.99,,2013-02-14 20:11:00,
2013-02-14 13:02:00,50.0,32.0,-100.00,ESE,119,5.0,10.0,49,-99.99,,,-99.99,,2013-02-14 21:02:00,
2013-02-14 13:11:00,50.0,32.0,-100.00,ESE,119,5.0,10.0,49,-99.99,,,-99.99,,2013-02-14 21:11:00,
2013-02-14 14:02:00,53.0,33.0,-100.00,SSE,158,3.0,7.0,46,-99.99,,,-99.99,,2013-02-14 22:02:00,
2013-02-14 14:11:00,53.0,33.0,-100.00,SSE,158,3.0,7.0,46,-99.99,,,-99.99,,2013-02-14 22:11:00,
2013-02-14 15:01:00,54.0,31.0,-100.00,SSE,158,5.0,8.0,41,-99.99,,,-99.99,,2013-02-14 23:01:00,
2013-02-14 15:11:00,54.0,31.0,-100.00,SSE,158,5.0,8.0,41,-99.99,,,-99.99,,2013-02-14 23:11:00,
2013-02-14 16:01:00,55.0,30.0,-100.00,SE,139,6.0,8.0,38,-99.99,,,-99.99,,2013-02-15 00:01:00,
2013-02-14 16:11:00,55.0,30.0,-100.00,SE,139,6.0,8.0,38,-99.99,,,-99.99,,2013-02-15 00:11:00,
2013-02-14 18:01:00,50.0,34.0,-100.00,SSE,159,7.0,9.0,53,-99.99,,,-99.99,,2013-02-15 02:01:00,
2013-02-14 18:11:00,50.0,34.0,-100.00,SSE,159,7.0,9.0,53,-99.99,,,-99.99,,2013-02-15 02:11:00,
2013-02-14 19:02:00,47.0,33.0,-100.00,SSE,155,6.0,8.0,58,-99.99,,,-99.99,,2013-02-15 03:02:00,
2013-02-14 19:11:00,47.0,33.0,-100.00,SSE,155,6.0,8.0,58,-99.99,,,-99.99,,2013-02-15 03:11:00,
2013-02-14 20:01:00,45.0,34.0,-100.00,SSE,158,5.0,6.0,65,-99.99,,,-99.99,,2013-02-15 04:01:00,
2013-02-14 20:11:00,45.0,34.0,-100.00,SSE,158,5.0,6.0,65,-99.99,,,-99.99,,2013-02-15 04:11:00,
2013-02-14 21:02:00,43.0,33.0,-100.00,SSE,164,3.0,5.0,67,-99.99,,,-99.99,,2013-02-15 05:02:00,
2013-02-14 21:11:00,43.0,33.0,-100.00,SSE,164,3.0,5.0,67,-99.99,,,-99.99,,2013-02-15 05:11:00,
2013-02-14 22:02:00,40.0,32.0,-100.00,West,259,6.0,7.0,72,-99.99,,,-99.99,,2013-02-15 06:02:00,
2013-02-14 22:11:00,40.0,32.0,-100.00,West,259,6.0,7.0,72,-99.99,,,-99.99,,2013-02-15 06:11:00,
2013-02-14 23:01:00,37.0,32.0,-100.00,WNW,297,3.0,6.0,81,-99.99,,,-99.99,,2013-02-15 07:01:00,
2013-02-14 23:11:00,37.0,32.0,-100.00,WNW,297,3.0,6.0,81,-99.99,,,-99.99,,2013-02-15 07:11:00,